contact:dominique.lefevre@mio.osupytheas.fr, maurice.libes@osupytheas.fr
Project:EMSO Ligure-ouest http://www.emso-fr.org/EMSO-France
Sensor Aquadopp, line 13 Serial AQD14315 
DOI : "https://doi.org/10.17882/74513; https://doi.org/10.17882/83244" 
Title:EMSO Ligure Ouest : Data ligne ALBATROSS capteur AQUADOPP - deploiement 2021
Id,Date,Profondeur,Latitude,Longitude,X_East,Y_North,Z_Up,Amplitude_X,Amplitude_Y,Amplitude_Z,Batterie,SoundSpeed,Heading,Pitch,Roll,Pressure,Temperature,Speed,Direction
, , m, degrees North, degrees East, m.s-1, m.s-1,m.s-1, 1, 1, 1, Volt, m.s-1, degree, degree, degree, dbar, degree_C, m.s-1, degree
13,2022-09-22T23:30:00,2400.0,42.79,6.0312,-0.009,-0.016,-0.019,66.0,55.0,60.0,12.9,1504.9,128.4,0.0,-0.1,2393.016,13.34,0.018,209.4
13,2022-09-23T00:00:00,2400.0,42.79,6.0312,-0.01,-0.008,-0.009,61.0,60.0,59.0,12.9,1504.9,128.7,0.1,-0.2,2392.991,13.34,0.012,231.3
13,2022-09-23T00:30:00,2400.0,42.79,6.0312,-0.015,0.014,0.0,61.0,54.0,54.0,12.8,1504.9,130.0,0.0,-0.3,2393.028,13.34,0.02,313.0
13,2022-09-23T01:00:00,2400.0,42.79,6.0312,0.006,-0.005,-0.018,59.0,51.0,53.0,12.9,1504.9,131.6,0.1,-0.3,2393.049,13.34,0.007,129.8
13,2022-09-23T01:30:00,2400.0,42.79,6.0312,-0.009,-0.022,-0.013,59.0,57.0,54.0,12.9,1504.9,134.5,0.0,-0.3,2393.025,13.34,0.023,202.2
13,2022-09-23T02:00:00,2400.0,42.79,6.0312,-0.005,-0.03,-0.011,60.0,58.0,56.0,12.9,1504.9,133.3,0.1,-0.1,2393.037,13.34,0.03,189.5
13,2022-09-23T02:30:00,2400.0,42.79,6.0312,-0.027,-0.017,0.001,62.0,58.0,56.0,12.9,1504.9,136.7,0.0,-0.3,2393.001,13.34,0.031,237.8
13,2022-09-23T03:00:00,2400.0,42.79,6.0312,-0.02,-0.027,-0.045,60.0,53.0,55.0,12.8,1504.9,136.2,0.0,-0.2,2393.044,13.34,0.033,216.5
13,2022-09-23T03:30:00,2400.0,42.79,6.0312,-0.009,-0.023,0.012,61.0,61.0,58.0,12.9,1504.9,138.7,-0.1,-0.3,2393.04,13.34,0.024,201.4
13,2022-09-23T04:00:00,2400.0,42.79,6.0312,-0.006,-0.01,-0.002,62.0,56.0,61.0,12.9,1504.9,134.3,0.0,-0.2,2393.092,13.34,0.011,211.0
13,2022-09-23T04:30:00,2400.0,42.79,6.0312,-0.009,-0.005,0.001,61.0,54.0,55.0,12.8,1504.9,148.3,-0.2,-0.4,2393.112,13.34,0.01,240.9
13,2022-09-23T05:00:00,2400.0,42.79,6.0312,-0.003,-0.004,0.021,62.0,54.0,55.0,12.9,1504.9,133.6,0.1,-0.3,2393.108,13.34,0.005,216.9
13,2022-09-23T05:30:00,2400.0,42.79,6.0312,-0.019,0.0,0.019,62.0,56.0,57.0,12.9,1504.9,125.2,0.2,-0.1,2393.102,13.34,0.019,270.0
13,2022-09-23T06:00:00,2400.0,42.79,6.0312,-0.022,0.002,-0.004,62.0,56.0,59.0,12.8,1504.9,102.5,0.0,-0.4,2393.077,13.34,0.022,275.2
13,2022-09-23T06:30:00,2400.0,42.79,6.0312,-0.019,-0.002,-0.002,61.0,55.0,57.0,12.9,1504.9,108.2,0.1,-0.2,2393.099,13.34,0.019,264.0
13,2022-09-23T07:00:00,2400.0,42.79,6.0312,-0.035,-0.011,0.0,63.0,56.0,59.0,12.8,1504.9,112.6,0.3,-0.2,2393.111,13.34,0.036,252.6
13,2022-09-23T07:30:00,2400.0,42.79,6.0312,-0.023,-0.007,-0.001,60.0,53.0,59.0,12.8,1504.9,113.0,0.1,-0.2,2393.067,13.34,0.024,253.1
13,2022-09-23T08:00:00,2400.0,42.79,6.0312,-0.023,0.009,-0.021,63.0,56.0,57.0,12.9,1504.9,112.6,0.1,-0.3,2393.123,13.34,0.024,291.4
13,2022-09-23T08:30:00,2400.0,42.79,6.0312,-0.019,-0.002,-0.039,63.0,55.0,59.0,12.8,1504.9,114.5,0.1,-0.1,2393.069,13.34,0.019,264.0
13,2022-09-23T09:00:00,2400.0,42.79,6.0312,-0.025,0.009,-0.005,64.0,54.0,55.0,12.9,1504.9,109.8,0.1,-0.1,2393.018,13.34,0.026,289.8
13,2022-09-23T09:30:00,2400.0,42.79,6.0312,-0.034,-0.001,-0.008,62.0,55.0,58.0,12.8,1504.9,107.0,0.2,-0.2,2393.024,13.34,0.034,268.3
13,2022-09-23T10:00:00,2400.0,42.79,6.0312,-0.005,-0.002,-0.016,65.0,55.0,56.0,12.8,1504.9,106.0,0.2,-0.2,2393.023,13.34,0.005,248.2
13,2022-09-23T10:30:00,2400.0,42.79,6.0312,-0.014,0.003,-0.019,59.0,53.0,55.0,12.9,1504.9,110.2,0.2,-0.2,2393.029,13.34,0.014,282.1
13,2022-09-23T11:00:00,2400.0,42.79,6.0312,-0.012,0.007,-0.013,58.0,53.0,54.0,12.9,1504.9,110.7,0.2,-0.1,2393.025,13.34,0.013,300.3
13,2022-09-23T11:30:00,2400.0,42.79,6.0312,0.001,0.008,0.0,62.0,54.0,56.0,12.8,1504.9,111.0,0.2,-0.1,2393.027,13.34,0.008,7.1
13,2022-09-23T12:00:00,2400.0,42.79,6.0312,-0.001,0.004,-0.001,66.0,54.0,55.0,12.9,1504.9,113.3,0.2,-0.2,2393.006,13.34,0.004,346.0
13,2022-09-23T13:00:00,2400.0,42.79,6.0312,-0.013,0.021,0.013,56.0,57.0,54.0,12.8,1504.9,114.5,0.2,-0.2,2393.053,13.34,0.024,328.2
13,2022-09-23T13:30:00,2400.0,42.79,6.0312,-0.029,0.008,-0.005,61.0,52.0,59.0,12.9,1504.9,115.1,0.0,-0.2,2393.012,13.34,0.03,285.4
13,2022-09-23T14:00:00,2400.0,42.79,6.0312,-0.005,0.009,-0.02,65.0,55.0,58.0,12.8,1504.9,119.6,0.2,-0.2,2393.029,13.34,0.01,330.9
13,2022-09-23T14:30:00,2400.0,42.79,6.0312,-0.001,0.007,0.017,64.0,60.0,54.0,12.8,1504.9,120.5,0.1,-0.2,2393.01,13.34,0.007,351.9
13,2022-09-23T15:00:00,2400.0,42.79,6.0312,-0.006,0.002,-0.011,66.0,53.0,54.0,12.8,1504.9,122.0,0.2,-0.2,2393.1,13.34,0.006,288.4
13,2022-09-23T15:30:00,2400.0,42.79,6.0312,0.007,-0.012,0.0,64.0,54.0,55.0,12.8,1504.9,121.2,0.2,-0.2,2393.097,13.34,0.013,149.7
13,2022-09-23T16:00:00,2400.0,42.79,6.0312,-0.008,-0.01,-0.007,56.0,56.0,53.0,12.8,1504.9,121.8,0.1,-0.2,2393.114,13.34,0.012,218.7
13,2022-09-23T16:30:00,2400.0,42.79,6.0312,0.001,-0.005,0.035,60.0,55.0,56.0,12.8,1504.9,121.3,0.2,-0.2,2393.15,13.34,0.005,168.7
13,2022-09-23T17:00:00,2400.0,42.79,6.0312,0.001,-0.017,-0.001,60.0,53.0,61.0,12.8,1504.9,120.9,0.2,-0.2,2393.177,13.34,0.017,176.6
13,2022-09-23T17:30:00,2400.0,42.79,6.0312,0.007,-0.012,-0.001,63.0,56.0,53.0,12.9,1504.9,123.1,0.1,-0.2,2393.17,13.34,0.013,149.7
13,2022-09-23T18:00:00,2400.0,42.79,6.0312,-0.009,-0.021,-0.009,62.0,53.0,56.0,12.8,1504.9,120.8,0.1,-0.3,2393.195,13.34,0.022,203.2
13,2022-09-23T18:30:00,2400.0,42.79,6.0312,-0.013,-0.014,-0.016,63.0,54.0,56.0,12.8,1504.9,121.0,0.1,-0.3,2393.209,13.34,0.019,222.9
13,2022-09-23T19:00:00,2400.0,42.79,6.0312,0.013,-0.018,0.011,61.0,53.0,55.0,12.8,1504.9,132.3,0.0,-0.2,2393.158,13.34,0.022,144.2
13,2022-09-23T19:30:00,2400.0,42.79,6.0312,-0.014,-0.02,-0.002,62.0,56.0,57.0,12.9,1504.9,137.4,-0.1,-0.3,2393.154,13.34,0.024,215.0
13,2022-09-23T20:00:00,2400.0,42.79,6.0312,-0.014,-0.005,-0.025,63.0,54.0,61.0,12.8,1504.9,131.6,0.0,-0.2,2393.147,13.34,0.014,250.4
13,2022-09-23T20:30:00,2400.0,42.79,6.0312,-0.029,-0.023,0.02,61.0,54.0,60.0,12.9,1504.9,134.1,0.0,-0.2,2393.107,13.34,0.037,231.6
13,2022-09-23T21:00:00,2400.0,42.79,6.0312,-0.013,-0.026,-0.011,64.0,57.0,58.0,12.8,1504.9,128.1,0.0,-0.2,2393.166,13.34,0.029,206.6
13,2022-09-23T21:30:00,2400.0,42.79,6.0312,-0.041,-0.017,-0.026,64.0,56.0,57.0,12.9,1504.9,95.2,0.2,-0.1,2393.108,13.34,0.044,247.5
13,2022-09-23T22:00:00,2400.0,42.79,6.0312,-0.038,-0.022,-0.025,61.0,56.0,56.0,12.8,1504.9,91.2,0.1,-0.3,2393.078,13.34,0.043,239.9
13,2022-09-23T22:30:00,2400.0,42.79,6.0312,-0.025,-0.022,0.014,60.0,57.0,57.0,12.8,1504.9,98.7,0.1,-0.2,2393.063,13.34,0.033,228.7
13,2022-09-23T23:00:00,2400.0,42.79,6.0312,-0.034,-0.019,-0.012,63.0,54.0,58.0,12.8,1504.9,96.9,0.2,-0.3,2393.048,13.34,0.038,240.8
